Haines, AK

10:00 PM AKDT on September 25, 2016 (GMT -0800)
Haines

Weather History for PAHN - November, 2014

Change the Weather History Date:

Thursday, November 13, 2014

  Actual Average Record
Temperature  
Mean Temperature 30 °F -  
Max Temperature 35 °F 36 °F 48 °F (1976)
Min Temperature 24 °F 29 °F 5 °F (1973)
Degree Days  
Heating Degree Days 36    
Moisture  
Dew Point 22 °F    
Average Humidity 77    
Maximum Humidity 88    
Minimum Humidity 64    
Precipitation  
Precipitation 0.00 in - - ()
Sea Level Pressure  
Sea Level Pressure 30.23 in    
Wind  
Wind Speed 8 mph (WNW)    
Max Wind Speed 14 mph    
Max Gust Speed -    
Visibility 10 miles    
Events      
Averages and records for this station are not official NWS values.
T = Trace of Precipitation, MM = Missing Value Source: NWS Daily Summary

Daily Weather History Graph

Daily Weather History Graph

Search for Another Location

Airport or City:

Trip Planner

Search our weather history database for the weather conditions in past years. The results will help you decide how hot, cold, wet, or windy it might be!

Date:

Astronomy

Nov. 13, 2014 Rise Set
Actual Time 7:51 AM AKST 3:40 PM AKST
Civil Twilight 7:04 AM AKST 4:27 PM AKST
Nautical Twilight 6:13 AM AKST 5:17 PM AKST
Astronomical Twilight 5:26 AM AKST 6:05 PM AKST
Moon 10:30 PM AKST (11/13) 12:53 PM AKST (11/13)
Length of Visible Light 9h 23m
Length of Day
7h 49m
Waning Gibbous, 57% of the Moon is Illuminated
Nov 13
Waning Gibbous
Nov 14
Last Quarter
Nov 22
New
Nov 29
First Quarter
Dec 6
Full

Hourly Weather History & Observations

Time (AKST) Temp. Windchill Dew Point Humidity Pressure Visibility Wind Dir Wind Speed Gust Speed Precip Events Conditions
12:54 AM 25.0 °F 17.1 °F 21.9 °F 88% 30.29 in 10.0 mi WNW 6.9 mph - N/A   Clear
1:54 AM 26.1 °F - 23.0 °F 88% 30.29 in 10.0 mi Calm Calm - N/A   Clear
2:54 AM 25.0 °F 15.5 °F 21.9 °F 88% 30.28 in 10.0 mi WNW 9.2 mph - N/A   Clear
3:54 AM 26.1 °F 16.2 °F 21.0 °F 81% 30.27 in 10.0 mi WNW 10.4 mph - N/A   Clear
4:54 AM 25.0 °F 13.1 °F 21.0 °F 85% 30.25 in 10.0 mi WNW 13.8 mph - N/A   Clear
5:54 AM 24.1 °F 16.0 °F 19.9 °F 84% 30.24 in 10.0 mi WNW 6.9 mph - N/A   Clear
6:54 AM 24.1 °F 13.7 °F 21.0 °F 88% 30.23 in 10.0 mi WNW 10.4 mph - N/A   Clear
7:54 AM 27.0 °F 16.1 °F 21.0 °F 78% 30.23 in 10.0 mi West 12.7 mph - N/A   Clear
8:54 AM 27.0 °F 16.7 °F 21.0 °F 78% 30.22 in 10.0 mi WNW 11.5 mph - N/A   Clear
9:54 AM 28.9 °F 20.4 °F 21.9 °F 75% 30.22 in 10.0 mi WNW 9.2 mph - N/A   Clear
10:54 AM 33.1 °F 24.4 °F 21.9 °F 64% 30.22 in 9.0 mi WNW 11.5 mph - N/A   Clear
11:54 AM 34.0 °F 24.6 °F 23.0 °F 64% 30.20 in 10.0 mi WNW 13.8 mph - N/A   Clear
12:54 PM 35.1 °F 25.9 °F 24.1 °F 64% 30.20 in 10.0 mi WNW 13.8 mph - N/A   Clear
1:54 PM 34.0 °F 25.5 °F 24.1 °F 67% 30.19 in 10.0 mi WNW 11.5 mph - N/A   Clear
2:54 PM 32.0 °F - 24.1 °F 73% 30.19 in 10.0 mi Calm Calm - N/A   Clear
3:54 PM 33.1 °F 26.1 °F 23.0 °F 66% 30.20 in 10.0 mi WNW 8.1 mph - N/A   Clear
4:54 PM 32.0 °F 24.2 °F 24.1 °F 73% 30.20 in 10.0 mi NW 9.2 mph - N/A   Clear
5:54 PM 28.0 °F - 23.0 °F 81% 30.21 in 10.0 mi Calm Calm - N/A   Clear
6:54 PM 34.0 °F 25.5 °F 23.0 °F 64% 30.21 in 10.0 mi WNW 11.5 mph - N/A   Clear
7:54 PM 28.9 °F 22.8 °F 23.0 °F 78% 30.22 in 10.0 mi WNW 5.8 mph - N/A   Clear
8:54 PM 28.0 °F 19.3 °F 21.9 °F 78% 30.22 in 10.0 mi WNW 9.2 mph - N/A   Clear
9:54 PM 30.0 °F 21.7 °F 23.0 °F 75% 30.23 in 10.0 mi WNW 9.2 mph - N/A   Clear
10:54 PM 30.0 °F 23.2 °F 21.9 °F 72% 30.25 in 10.0 mi NW 6.9 mph - N/A   Clear
11:54 PM 25.0 °F 18.1 °F 21.0 °F 85% 30.26 in 10.0 mi WNW 5.8 mph - N/A   Clear